Weather in Shirokiy Buyerak

Russia / Saratov Oblast     51°19′11″N   45°47′12″E
temp.,
°C
wind,
m/s
gust,
m/s
humid.,
%
clouds,
%
prec.,
mm/h
press.,
hPa
HPBL,
m
27 february, sat
sat2701:00+3w91798100 0.2 1005336
04:00+2w81594100 0.3 1006366
07:00+1w71489100 0.0 1005361
10:00+1w7148796 0.0 1005536
13:00+1w71393100 0.0 1004542
16:00+1w71491100 0.1 1003612
19:00+1w9168999 0.1 1003756
22:00−9nw7148279 0.4 1005410
28 february, sun
sun2801:00−9wnw7148557 0.0 1007535
04:00−12nw7138469 0.0 1010516
07:00−13nw6118542 0.0 1011418
10:00−13nw7118356 0.0 1013442
13:00−11nw698381 0.0 1014490
16:00−10nw688368 0.0 1015508
19:00−13nw478940 0.0 1016126
22:00−14nw348920 0.0 101885
1 march, mon
mon101:00−15nw34880 0.0 102046
04:00−16nw34880 0.0 102148
07:00−16nw33880 0.0 102239
10:00−15nw24860 0.0 1024153
13:00−12nw23790 0.0 1025369
16:00−10wnw35846 0.0 1025385
19:00−13wnw33890 0.0 102524
22:00−14w34900 0.0 102640
2 march, tue
tue201:00−13wsw44920 0.0 102467
04:00−12wsw46920 0.0 1022103
07:00−8sw5109158 0.0 1019188
10:00−4wsw8149079 0.1 1016507
13:00−1wsw91490100 0.1 1013717
16:000wsw7129096 0.3 1009598
19:000w61296100 0.9 1007386
22:00−1wnw6119296 1.1 1006256
3 march, wed
wed301:00−3nw6109278 0.0 1006174
04:00−3wnw6109189 0.0 1006237
07:00−2nw7118793 0.0 1007442
10:00−2nw7128597 0.0 1009678
13:00−1nw7108493 0.0 1010838
16:00−1nw7108297 0.1 1011864
19:00−2nw61186100 0.1 1013469
22:00−4nw5108899 0.1 1014293